DW4379 Weather Reports


Display with metric or nautical units.
time (UTC)temp
F
wind
direction
speed
MPH
gust
MPH
rain 1hr
in
rain 24hr
in
rain mn
in
humidity
%
barometer
mb
20260502210004 56 315 2.0 4.0 0.00 0.00 0.00 40 1017.0
20260502205503 56 321 1.0 4.0 0.00 0.00 0.00 41 1017.0
20260502205003 56 343 2.0 8.0 0.00 0.00 0.00 40 1017.0
20260502204504 56 339 3.0 8.0 0.00 0.00 0.00 40 1017.0
20260502204003 56 317 1.0 4.0 0.00 0.00 0.00 40 1017.0
20260502203718 56 315 1.0 3.0 0.00 0.00 0.00 41 1017.0
20260502203218 56 308 1.0 3.0 0.00 0.00 0.00 41 1017.0
20260502202503 57 312 2.0 4.0 0.00 0.00 0.00 40 1017.0
20260502202003 57 317 2.0 8.0 0.00 0.00 0.00 40 1017.1
20260502201718 57 319 2.0 8.0 0.00 0.00 0.00 41 1017.2
20260502201217 57 304 1.0 3.0 0.00 0.00 0.00 42 1017.1
20260502200503 56 315 2.0 7.0 0.00 0.00 0.00 41 1017.3
20260502200003 56 319 1.0 7.0 0.00 0.00 0.00 40 1017.2
20260502195503 56 312 1.0 3.0 0.00 0.00 0.00 40 1017.3
20260502195003 56 337 1.0 8.0 0.00 0.00 0.00 40 1017.4
20260502194503 56 351 2.0 8.0 0.00 0.00 0.00 43 1017.4
20260502194003 56 334 2.0 10.0 0.00 0.00 0.00 40 1017.4
20260502193504 57 322 2.0 10.0 0.00 0.00 0.00 40 1017.4
20260502193003 57 311 1.0 3.0 0.00 0.00 0.00 39 1017.3
20260502192503 57 315 2.0 5.0 0.00 0.00 0.00 39 1017.3
20260502192217 57 314 2.0 5.0 0.00 0.00 0.00 40 1017.4
20260502191718 57 319 2.0 9.0 0.00 0.00 0.00 41 1017.5
20260502191217 57 322 2.0 9.0 0.00 0.00 0.00 39 1017.6
20260502190503 57 308 1.0 4.0 0.00 0.00 0.00 41 1017.5
20260502190217 57 306 1.0 3.0 0.00 0.00 0.00 42 1017.5
20260502185503 56 344 3.0 10.0 0.00 0.00 0.00 39 1017.6
20260502185003 56 339 3.0 10.0 0.00 0.00 0.00 41 1017.6
20260502184503 56 313 2.0 5.0 0.00 0.00 0.00 42 1017.6
20260502184003 55 325 2.0 5.0 0.00 0.00 0.00 42 1017.6
20260502183503 55 333 2.0 6.0 0.00 0.00 0.00 40 1017.7
20260502183003 55 336 2.0 7.0 0.00 0.00 0.00 42 1017.7
20260502182503 56 338 2.0 7.0 0.00 0.00 0.00 41 1017.7
20260502182003 56 329 2.0 6.0 0.00 0.00 0.00 41 1017.8
20260502181503 56 332 1.0 6.0 0.00 0.00 0.00 43 1017.7
20260502181218 56 332 1.0 6.0 0.00 0.00 0.00 40 1017.7
20260502180503 56 314 1.0 4.0 0.00 0.00 0.00 42 1017.8
20260502170503 56 24 1.0 7.0 0.00 0.00 0.00 47 1018.1
20260502164003 55 350 2.0 7.0 0.00 0.00 0.00 48 1018.2
20260502163503 54 3 2.0 6.0 0.00 0.00 0.00 51 1018.3
20260502163218 54 5 2.0 6.0 0.00 0.00 0.00 46 1018.2
20260502162503 54 338 1.0 6.0 0.00 0.00 0.00 51 1018.4
20260502162003 54 354 1.0 6.0 0.00 0.00 0.00 52 1018.6
20260502161503 54 358 2.0 6.0 0.00 0.00 0.00 52 1018.7
20260502161003 54 347 1.0 5.0 0.00 0.00 0.00 54 1018.7
20260502160503 53 337 1.0 6.0 0.00 0.00 0.00 53 1018.7
20260502152003 51 7 2.0 4.0 0.00 0.00 0.00 56 1018.6
20260502151503 52 1 2.0 6.0 0.00 0.00 0.00 55 1018.6
20260502151003 51 21 3.0 6.0 0.00 0.00 0.00 55 1018.7
20260502150503 51 44 2.0 6.0 0.00 0.00 0.00 56 1018.6
20260502130503 45 31 0.0 4.0 0.00 0.00 0.00 75 1018.5
20260502123504 43 63 0.0 1.0 0.00 0.00 0.00 79 1018.3
20260502123003 43 62 0.0 2.0 0.00 0.00 0.00 79 1018.3
20260502122503 43 72 0.0 2.0 0.00 0.00 0.00 81 1018.2
20260502122003 43 21 0.0 2.0 0.00 0.00 0.00 81 1018.2
20260502121717 43 357 0.0 2.0 0.00 0.00 0.00 82 1018.1
20260502121003 42 1 0.0 1.0 0.00 0.00 0.00 82 1017.9
20260502120503 42 359 0.0 1.0 0.00 0.00 0.00 82 1017.8
20260502115717 42 1 0.0 1.0 0.00 0.00 0.00 82 1017.7
20260502115003 42 13 0.0 1.0 0.00 0.00 0.00 83 1017.6
20260502114503 42 0 0.0 0.0 0.00 0.00 0.00 83 1017.7
20260502114003 42 353 0.0 1.0 0.00 0.00 0.00 83 1017.6
20260502113503 42 353 0.0 1.0 0.00 0.00 0.00 83 1017.5
20260502113004 42 351 0.0 1.0 0.00 0.00 0.00 83 1017.5
20260502112503 42 340 0.0 1.0 0.00 0.00 0.00 83 1017.3
20260502112003 42 0 0.0 0.0 0.00 0.00 0.00 84 1017.1
20260502111503 42 0 0.0 0.0 0.00 0.00 0.00 84 1016.9
20260502111003 42 36 0.0 2.0 0.00 0.00 0.00 83 1016.8
20260502110503 42 33 0.0 3.0 0.00 0.00 0.00 83 1016.8
20260502110004 42 29 0.0 3.0 0.00 0.00 0.00 83 1017.0
20260502105717 42 5 0.0 2.0 0.00 0.00 0.00 83 1017.1
20260502105004 42 360 0.0 2.0 0.00 0.00 0.00 83 1016.9
20260502104503 42 357 0.0 1.0 0.00 0.00 0.00 83 1017.0
20260502104003 42 2 0.0 1.0 0.00 0.00 0.00 83 1016.9
20260502103503 42 357 0.0 1.0 0.00 0.00 0.00 83 1017.0
20260502103218 42 356 0.0 1.0 0.00 0.00 0.00 83 1016.9
20260502102503 42 358 0.0 1.0 0.00 0.00 0.00 84 1017.0
20260502102003 42 7 0.0 1.0 0.00 0.00 0.00 84 1017.0
20260502101503 43 12 0.0 1.0 0.00 0.00 0.00 84 1017.0
20260502101003 43 355 0.0 1.0 0.00 0.00 0.00 84 1017.0
20260502100503 43 354 0.0 1.0 0.00 0.00 0.00 83 1017.0
20260502091503 44 5 0.0 3.0 0.00 0.00 0.00 83 1016.9
20260502091003 44 1 1.0 3.0 0.00 0.00 0.00 84 1016.8
20260502090503 44 356 1.0 3.0 0.00 0.00 0.00 84 1016.9
20260502071503 46 358 0.0 1.0 0.00 0.00 0.00 85 1016.5
20260502071003 46 357 0.0 2.0 0.00 0.00 0.00 85 1016.6
20260502070503 46 15 0.0 2.0 0.00 0.00 0.00 85 1016.6
20260502070004 47 40 0.0 3.0 0.00 0.00 0.00 85 1016.4
20260502065503 47 15 1.0 4.0 0.00 0.00 0.00 85 1016.5
20260502065003 47 360 1.0 4.0 0.00 0.00 0.00 86 1016.6
20260502064504 47 0 0.0 0.0 0.00 0.00 0.00 85 1016.6
20260502064003 47 0 0.0 0.0 0.00 0.00 0.00 84 1016.6
20260502063503 47 0 0.0 0.0 0.00 0.00 0.00 84 1016.6
20260502063003 47 0 0.0 0.0 0.00 0.00 0.00 84 1016.7
20260502062503 47 0 0.0 0.0 0.00 0.00 0.00 83 1016.7
20260502062004 47 63 0.0 2.0 0.00 0.00 0.00 83 1016.7
20260502061717 47 63 0.0 2.0 0.00 0.00 0.00 83 1016.8
20260502061003 48 107 0.0 2.0 0.00 0.00 0.00 84 1016.7
20260502060503 48 58 0.0 2.0 0.00 0.00 0.00 84 1016.7
20260502060004 48 22 0.0 2.0 0.00 0.00 0.00 82 1016.8
20260502055503 48 30 0.0 2.0 0.00 0.00 0.00 82 1016.9
20260502055222 48 0 0.0 0.0 0.00 0.00 0.00 82 1016.9
20260502054503 48 63 0.0 1.0 0.00 0.00 0.00 83 1016.9
20260502054003 48 34 0.0 1.0 0.00 0.00 0.00 83 1017.0
20260502053503 48 351 0.0 1.0 0.00 0.00 0.00 83 1016.9
20260502053003 48 0 0.0 0.0 0.00 0.00 0.00 83 1016.9
20260502052717 48 0 0.0 0.0 0.00 0.00 0.00 84 1016.9
20260502052003 48 354 0.0 1.0 0.00 0.00 0.00 83 1017.0
20260502051503 47 354 0.0 1.0 0.00 0.00 0.00 83 1016.9
20260502051003 47 0 0.0 0.0 0.00 0.00 0.00 84 1016.9
20260502050503 47 0 0.0 0.0 0.00 0.00 0.00 84 1016.7
20260502050004 47 0 0.0 0.0 0.00 0.00 0.00 85 1016.7
20260502045504 47 354 0.0 1.0 0.00 0.00 0.00 85 1016.7
20260502044504 47 354 0.0 1.0 0.00 0.00 0.00 85 1016.8
20260502044003 47 354 0.0 1.0 0.00 0.00 0.00 85 1016.9
20260502043504 47 0 0.0 0.0 0.00 0.00 0.00 87 1016.9
20260502043217 47 0 0.0 0.0 0.00 0.00 0.00 87 1016.9
20260502042503 46 0 0.0 0.0 0.00 0.00 0.00 87 1016.9
20260502042217 46 0 0.0 0.0 0.00 0.00 0.00 87 1016.9
20260502041718 46 0 0.0 0.0 0.00 0.00 0.00 88 1017.0
20260502041003 46 0 0.0 0.0 0.00 0.00 0.00 88 1017.0
20260502040503 46 0 0.0 0.0 0.00 0.00 0.00 88 1016.9
20260502040006 46 0 0.0 0.0 0.00 0.00 0.00 88 1016.9
20260502035503 46 0 0.0 0.0 0.00 0.00 0.00 88 1017.0
20260502035003 46 0 0.0 0.0 0.00 0.00 0.00 88 1017.0
20260502034503 46 0 0.0 0.0 0.00 0.00 0.00 88 1016.9
20260502034003 45 0 0.0 0.0 0.00 0.00 0.00 88 1017.0
20260502033503 45 0 0.0 0.0 0.00 0.00 0.00 88 1017.0
20260502033217 45 0 0.0 0.0 0.00 0.00 0.00 88 1017.1
20260502032718 45 0 0.0 0.0 0.00 0.00 0.00 88 1017.0
20260502032003 45 115 0.0 1.0 0.00 0.00 0.00 87 1016.9
20260502031504 45 0 0.0 0.0 0.00 0.00 0.00 87 1017.0
20260502031003 45 0 0.0 0.0 0.00 0.00 0.00 86 1017.1
20260502030718 45 0 0.0 0.0 0.00 0.00 0.00 86 1017.1
20260502030003 46 0 0.0 0.0 0.00 0.00 0.00 86 1017.0
20260502025503 46 0 0.0 0.0 0.00 0.00 0.00 85 1017.0
20260502025217 46 0 0.0 0.0 0.00 0.00 0.00 85 1016.9
20260502024504 46 0 0.0 0.0 0.00 0.00 0.00 83 1017.1
20260502024004 47 0 0.0 0.0 0.00 0.00 0.00 82 1017.0
20260502023503 47 0 0.0 0.0 0.00 0.00 0.00 82 1017.1
20260502023003 47 0 0.0 0.0 0.00 0.00 0.00 82 1017.1
20260502022503 47 0 0.0 0.0 0.00 0.00 0.00 82 1017.1
20260502022219 47 0 0.0 0.0 0.00 0.00 0.00 82 1017.0
20260502021503 48 0 0.0 0.0 0.00 0.00 0.00 81 1016.8
20260502021003 48 0 0.0 0.0 0.00 0.00 0.00 81 1016.8
20260502020718 48 0 0.0 0.0 0.00 0.00 0.00 81 1016.7
20260502020219 48 0 0.0 0.0 0.00 0.00 0.00 79 1016.6
20260502015503 48 0 0.0 0.0 0.00 0.00 0.00 77 1016.4
20260502015004 49 0 0.0 0.0 0.00 0.00 0.00 77 1016.4
20260502014717 49 0 0.0 0.0 0.00 0.00 0.00 77 1016.2
20260502014003 49 0 0.0 0.0 0.00 0.00 0.00 76 1016.3
20260502013503 49 0 0.0 0.0 0.00 0.00 0.00 75 1016.2
20260502013003 50 0 0.0 0.0 0.00 0.00 0.00 75 1016.1
20260502012503 50 0 0.0 0.0 0.00 0.00 0.00 74 1016.1
20260502012003 50 0 0.0 0.0 0.00 0.00 0.00 73 1016.1
20260502011717 50 0 0.0 0.0 0.00 0.00 0.00 73 1016.0
20260502011004 50 0 0.0 0.0 0.00 0.00 0.00 72 1015.9
20260502010504 50 359 0.0 1.0 0.00 0.00 0.00 72 1015.6
20260502010004 51 358 0.0 1.0 0.00 0.00 0.00 71 1015.5
20260502005717 51 358 0.0 1.0 0.00 0.00 0.00 71 1015.4
20260502005003 51 360 0.0 2.0 0.00 0.00 0.00 70 1015.3
20260502004503 51 355 0.0 1.0 0.00 0.00 0.00 69 1015.3
20260502004004 52 305 0.0 1.0 0.00 0.00 0.00 68 1015.2
20260502003503 52 310 0.0 1.0 0.00 0.00 0.00 67 1015.2
20260502003004 52 326 0.0 1.0 0.00 0.00 0.00 67 1015.2
20260502002717 52 328 0.0 1.0 0.00 0.00 0.00 67 1015.2
20260502002003 52 344 0.0 2.0 0.00 0.00 0.00 67 1015.0
20260502001503 52 339 1.0 2.0 0.00 0.00 0.00 68 1014.9
20260502001003 53 333 1.0 2.0 0.00 0.00 0.00 69 1015.0
20260502000503 53 321 1.0 2.0 0.00 0.00 0.00 69 1014.9
20260502000004 53 309 1.0 6.0 0.00 0.00 0.00 66 1014.9
20260501235717 53 306 2.0 6.0 0.00 0.00 0.00 65 1014.9
20260501235003 54 320 2.0 7.0 0.00 0.00 0.00 63 1014.9
20260501234509 55 343 1.0 7.0 0.00 0.00 0.00 62 1014.8
20260501234003 55 355 1.0 5.0 0.00 0.00 0.00 61 1014.8
20260501233503 55 356 2.0 5.0 0.00 0.00 0.00 60 1014.8
20260501233003 55 355 1.0 5.0 0.00 0.00 0.00 59 1014.8
20260501232503 55 347 0.0 3.0 0.00 0.00 0.00 59 1014.8
20260501232003 55 358 1.0 6.0 0.00 0.00 0.00 60 1014.8
20260501231504 55 3 1.0 6.0 0.00 0.00 0.00 59 1014.9
20260501231003 55 2 1.0 6.0 0.00 0.00 0.00 59 1014.8
20260501230503 55 359 2.0 6.0 0.00 0.00 0.00 58 1014.9
20260501230003 56 354 2.0 6.0 0.00 0.00 0.00 57 1015.0
20260501225503 56 349 2.0 6.0 0.00 0.00 0.00 57 1015.0
20260501225003 57 348 1.0 7.0 0.00 0.00 0.00 56 1015.0
20260501224718 57 348 1.0 7.0 0.00 0.00 0.00 56 1014.9
20260501224003 57 325 0.0 3.0 0.00 0.00 0.00 54 1014.8
20260501223503 57 301 0.0 1.0 0.00 0.00 0.00 55 1014.8
20260501223003 56 305 0.0 2.0 0.00 0.00 0.00 53 1014.8
20260501222503 56 307 1.0 3.0 0.00 0.00 0.00 54 1014.9
20260501222003 56 309 1.0 3.0 0.00 0.00 0.00 52 1014.9
20260501221503 56 313 0.0 3.0 0.00 0.00 0.00 54 1015.0
20260501221217 56 308 1.0 2.0 0.00 0.00 0.00 55 1015.0
20260501220503 56 323 1.0 2.0 0.00 0.00 0.00 54 1015.0
20260501215503 57 322 1.0 3.0 0.00 0.00 0.00 54 1015.1
20260501215003 57 324 1.0 3.0 0.00 0.00 0.00 55 1015.1
20260501214503 57 312 0.0 3.0 0.00 0.00 0.00 54 1015.1
20260501214217 58 316 0.0 3.0 0.00 0.00 0.00 54 1015.1
20260501213503 58 326 0.0 2.0 0.00 0.00 0.00 54 1015.1
20260501213003 57 296 1.0 3.0 0.00 0.00 0.00 56 1015.2
20260501212503 57 280 1.0 3.0 0.00 0.00 0.00 55 1015.1
20260501212217 57 279 0.0 2.0 0.00 0.00 0.00 55 1015.2
20260501211503 56 306 1.0 3.0 0.00 0.00 0.00 57 1015.3
20260501211003 56 308 1.0 3.0 0.00 0.00 0.00 57 1015.3
20260501210503 56 316 1.0 4.0 0.00 0.00 0.00 57 1015.4